Location: Crescent
(42.8242°N, 73.7329°W)
Time: 19:38:18
(UTC+00:00)

Explorer 7 - Pass Details

Date: 18 February 2026
Orbit: 430 x 541 km, 50.2° (Epoch: 10 March)

Event Time Altitude Azimuth Distance (km) Brightness Sun altitude
Rises 22:48:29 0° 293° (WNW) 2,487 11.2 -4.0°
Reaches altitude 10° 22:50:51 10° 306° (NW) 1,633 9.9 -4.5°
Maximum altitude 22:54:00 26° 5° (N) 988 8.0 -5.0°
Drops below altitude 10° 22:57:15 10° 63° (ENE) 1,692 8.7 -5.6°
Enters shadow 22:58:01 - 68° (ENE) 1,955 9.0 -5.7°
Sets 22:59:45 0° 76° (ENE) 2,599 - -6.1°
